| time (UTC) | temp F | wind direction | speed MPH | gust MPH | rain 1hr in | rain 24hr in | rain mn in | humidity % | barometer mb |
| 20260503232439 | 56 | 54 | 0.0 | 1.0 | 0.00 | 0.00 | 0.00 | 43 | 1013.4 |
| 20260503231410 | 56 | 103 | 1.0 | 5.0 | 0.00 | 0.00 | 0.00 | 43 | 1013.4 |
| 20260503230433 | 56 | 111 | 3.0 | 10.0 | 0.00 | 0.00 | 0.00 | 42 | 1013.5 |
| 20260503225421 | 56 | 104 | 5.0 | 11.0 | 0.00 | 0.00 | 0.00 | 40 | 1013.5 |
| 20260503224412 | 57 | 93 | 2.0 | 11.0 | 0.00 | 0.00 | 0.00 | 41 | 1013.6 |
| 20260503223346 | 57 | 56 | 1.0 | 9.0 | 0.00 | 0.00 | 0.00 | 41 | 1013.6 |
| 20260503222317 | 56 | 103 | 3.0 | 9.0 | 0.00 | 0.00 | 0.00 | 41 | 1013.7 |
| 20260503221319 | 57 | 101 | 2.0 | 7.0 | 0.00 | 0.00 | 0.00 | 41 | 1013.7 |
| 20260503220312 | 57 | 37 | 2.0 | 7.0 | 0.00 | 0.00 | 0.00 | 39 | 1013.7 |
| 20260503215301 | 57 | 96 | 2.0 | 7.0 | 0.00 | 0.00 | 0.00 | 42 | 1013.7 |
| 20260503214247 | 57 | 90 | 3.0 | 8.0 | 0.00 | 0.00 | 0.00 | 39 | 1013.7 |
| 20260503212130 | 58 | 94 | 4.0 | 14.0 | 0.00 | 0.00 | 0.00 | 40 | 1013.5 |
| 20260503211104 | 58 | 105 | 6.0 | 14.0 | 0.00 | 0.00 | 0.00 | 38 | 1013.6 |
| 20260503210107 | 58 | 91 | 6.0 | 14.0 | 0.00 | 0.00 | 0.00 | 42 | 1013.6 |
| 20260503205044 | 58 | 90 | 5.0 | 12.0 | 0.00 | 0.00 | 0.00 | 41 | 1013.7 |
| 20260503204036 | 58 | 94 | 3.0 | 10.0 | 0.00 | 0.00 | 0.00 | 41 | 1013.9 |
| 20260503203003 | 57 | 88 | 5.0 | 11.0 | 0.00 | 0.00 | 0.00 | 40 | 1014.1 |
| 20260503195632 | 56 | 86 | 4.0 | 10.0 | 0.00 | 0.00 | 0.00 | 42 | 1014.4 |
| 20260503194638 | 55 | 98 | 3.0 | 16.0 | 0.00 | 0.00 | 0.00 | 42 | 1014.5 |
| 20260503193605 | 56 | 110 | 3.0 | 9.0 | 0.00 | 0.00 | 0.00 | 42 | 1014.7 |
| 20260503192542 | 55 | 98 | 4.0 | 12.0 | 0.00 | 0.00 | 0.00 | 41 | 1014.7 |
| 20260503191521 | 56 | 121 | 4.0 | 17.0 | 0.00 | 0.00 | 0.00 | 41 | 1014.8 |
| 20260503190533 | 56 | 98 | 4.0 | 17.0 | 0.00 | 0.00 | 0.00 | 43 | 1015.1 |
| 20260503184414 | 55 | 97 | 4.0 | 12.0 | 0.00 | 0.00 | 0.00 | 42 | 1015.4 |
| 20260503181113 | 54 | 123 | 4.0 | 9.0 | 0.00 | 0.00 | 0.00 | 48 | 1015.7 |
| 20260503180045 | 54 | 103 | 3.0 | 13.0 | 0.00 | 0.00 | 0.00 | 43 | 1015.7 |
| 20260503175038 | 54 | 101 | 5.0 | 13.0 | 0.00 | 0.00 | 0.00 | 44 | 1015.8 |
| 20260503172934 | 54 | 88 | 5.0 | 13.0 | 0.00 | 0.00 | 0.00 | 43 | 1016.1 |
| 20260503171901 | 54 | 111 | 5.0 | 11.0 | 0.00 | 0.00 | 0.00 | 43 | 1016.2 |
| 20260503170908 | 54 | 95 | 3.0 | 7.0 | 0.00 | 0.00 | 0.00 | 45 | 1016.2 |
| 20260503150638 | 49 | 107 | 5.0 | 14.0 | 0.00 | 0.00 | 0.00 | 47 | 1017.2 |
| 20260503130426 | 43 | 96 | 3.0 | 10.0 | 0.00 | 0.00 | 0.00 | 62 | 1017.4 |
| 20260503080707 | 36 | 102 | 0.0 | 2.0 | 0.00 | 0.01 | 0.00 | 1 | 1015.7 |
| 20260503071332 | 36 | 105 | 0.0 | 1.0 | 0.00 | 0.01 | 0.00 | 1 | 1015.4 |
| 20260503054946 | 37 | 101 | 0.0 | 3.0 | 0.00 | 0.01 | 0.00 | 39 | 1015.5 |
| 20260503053954 | 37 | 101 | 0.0 | 3.0 | 0.00 | 0.01 | 0.00 | 42 | 1015.5 |
| 20260503052932 | 37 | 105 | 0.0 | 3.0 | 0.00 | 0.01 | 0.00 | 45 | 1015.5 |
| 20260503050735 | 38 | 102 | 0.0 | 3.0 | 0.00 | 0.01 | 0.00 | 50 | 1015.6 |
| 20260503045734 | 38 | 104 | 1.0 | 3.0 | 0.00 | 0.01 | 0.00 | 53 | 1015.7 |
| 20260503044707 | 38 | 96 | 1.0 | 4.0 | 0.00 | 0.01 | 0.00 | 54 | 1015.7 |
| 20260503043720 | 39 | 94 | 1.0 | 4.0 | 0.00 | 0.01 | 0.00 | 57 | 1015.7 |
| 20260503042711 | 39 | 98 | 1.0 | 3.0 | 0.00 | 0.01 | 0.00 | 58 | 1015.7 |
| 20260503040552 | 39 | 101 | 0.0 | 0.0 | 0.00 | 0.01 | 0.00 | 61 | 1015.7 |
| 20260503035524 | 39 | 101 | 0.0 | 1.0 | 0.00 | 0.01 | 0.01 | 63 | 1015.7 |
| 20260503034521 | 40 | 103 | 0.0 | 0.0 | 0.00 | 0.01 | 0.01 | 62 | 1015.7 |
| 20260503033448 | 40 | 103 | 0.0 | 0.0 | 0.00 | 0.01 | 0.01 | 62 | 1015.7 |
| 20260503032429 | 40 | 103 | 0.0 | 3.0 | 0.00 | 0.01 | 0.01 | 63 | 1015.6 |
| 20260503031427 | 40 | 103 | 0.0 | 1.0 | 0.00 | 0.01 | 0.01 | 63 | 1015.7 |
| 20260503030450 | 40 | 98 | 0.0 | 3.0 | 0.00 | 0.01 | 0.01 | 63 | 1015.7 |
| 20260503024403 | 40 | 96 | 0.0 | 0.0 | 0.00 | 0.01 | 0.01 | 63 | 1015.8 |
| 20260503022223 | 40 | 101 | 0.0 | 1.0 | 0.00 | 0.01 | 0.01 | 63 | 1016.0 |
| 20260503021237 | 40 | 105 | 0.0 | 0.0 | 0.00 | 0.01 | 0.01 | 62 | 1016.0 |
| 20260503015115 | 40 | 108 | 0.0 | 0.0 | 0.00 | 0.01 | 0.01 | 61 | 1015.9 |
| 20260503012957 | 41 | 122 | 0.0 | 6.0 | 0.00 | 0.01 | 0.01 | 60 | 1015.9 |
| 20260503012012 | 41 | 102 | 0.0 | 1.0 | 0.00 | 0.01 | 0.01 | 61 | 1015.8 |
| 20260503011032 | 41 | 102 | 0.0 | 1.0 | 0.00 | 0.01 | 0.01 | 58 | 1015.8 |
| 20260503010055 | 41 | 110 | 0.0 | 1.0 | 0.00 | 0.01 | 0.01 | 57 | 1015.7 |
| 20260503005059 | 41 | 125 | 0.0 | 0.0 | 0.00 | 0.01 | 0.01 | 57 | 1015.6 |
| 20260503002911 | 41 | 125 | 0.0 | 0.0 | 0.00 | 0.01 | 0.01 | 58 | 1015.3 |
| 20260503001859 | 41 | 125 | 0.0 | 0.0 | 0.00 | 0.01 | 0.01 | 59 | 1015.3 |
| 20260503000919 | 42 | 125 | 0.0 | 0.0 | 0.00 | 0.01 | 0.01 | 59 | 1015.3 |
| 20260502235911 | 42 | 129 | 0.0 | 0.0 | 0.00 | 0.01 | 0.01 | 61 | 1015.2 |
| 20260502234919 | 42 | 115 | 0.0 | 1.0 | 0.00 | 0.02 | 0.01 | 61 | 1015.2 |
| 20260502233903 | 42 | 104 | 0.0 | 4.0 | 0.00 | 0.02 | 0.01 | 62 | 1015.2 |
| 20260502232915 | 43 | 112 | 0.0 | 2.0 | 0.00 | 0.02 | 0.01 | 62 | 1015.0 |